Tracking 27126 objects as of 30-Mar-2023
HD Live streaming from Space Station
objects crossing your sky now

COSMOS 397 DEB

Track COSMOS 397 DEB now!
10-day predictions


NORAD ID: 5763
Int'l Code: 1971-015CF
Perigee: 842.8 km
Apogee: 1,427.0 km
Inclination: 66.9 °
Period: 107.9 minutes
Semi major axis: 7505 km
RCS: 0.0229 m2 (small)
Launch date: February 25, 1971
Source: Commonwealth of Independent States (former USSR) (CIS)
Launch site: TYURATAM MISSILE AND SPACE COMPLEX (TTMTR)

Note: This is SATELLITE DEBRIS
Your satellite tracking list
Your tracking list is empty




NASA's NSSDC Master Catalog

Two Line Element Set (TLE):
1  5763U 71015CF  23089.15864812  .00002772  00000-0  36554-2 0  9995
2  5763  66.9044  11.1303 0389176 307.4424  49.1804 13.35060662495836
Source of the keplerian elements: AFSPC